TimeMST,TemperatureF,Dew PointF,Humidity,Sea Level PressureIn,VisibilityMPH,Wind Direction,Wind SpeedMPH,Gust SpeedMPH,PrecipitationIn,Events,Conditions,WindDirDegrees,DateUTC
12:15 AM,21.2,10.2,63,29.95,10.0,Calm,Calm,-,N/A,,Clear,0,2014-02-18 07:15:00
12:35 AM,23.4,10.8,59,29.95,10.0,Calm,Calm,-,N/A,,Clear,0,2014-02-18 07:35:00
12:55 AM,21.2,9.5,61,29.95,10.0,NNW,3.5,-,N/A,,Clear,330,2014-02-18 07:55:00
1:15 AM,21.6,9.9,61,29.95,10.0,Calm,Calm,-,N/A,,Clear,0,2014-02-18 08:15:00
1:35 AM,21.7,9.3,59,29.94,10.0,Calm,Calm,-,N/A,,Clear,0,2014-02-18 08:35:00
1:55 AM,18.7,9.3,67,29.95,10.0,Calm,Calm,-,N/A,,Clear,0,2014-02-18 08:55:00
2:15 AM,20.3,9.5,63,29.94,10.0,Calm,Calm,-,N/A,,Clear,0,2014-02-18 09:15:00
2:35 AM,20.8,8.6,59,29.94,10.0,Calm,Calm,-,N/A,,Clear,0,2014-02-18 09:35:00
2:55 AM,19.0,8.8,64,29.94,10.0,Calm,Calm,-,N/A,,Clear,0,2014-02-18 09:55:00
3:15 AM,21.0,8.6,59,29.93,10.0,Calm,Calm,-,N/A,,Clear,0,2014-02-18 10:15:00
3:35 AM,20.1,8.8,62,29.92,10.0,East,3.5,-,N/A,,Clear,100,2014-02-18 10:35:00
3:55 AM,17.1,7.9,67,29.92,10.0,Calm,Calm,-,N/A,,Clear,0,2014-02-18 10:55:00
4:15 AM,18.3,7.7,63,29.92,10.0,Calm,Calm,-,N/A,,Clear,0,2014-02-18 11:15:00
4:35 AM,19.2,9.1,65,29.91,10.0,Calm,Calm,-,N/A,,Clear,0,2014-02-18 11:35:00
4:55 AM,18.9,9.1,66,29.91,10.0,Calm,Calm,-,N/A,,Clear,0,2014-02-18 11:55:00
5:15 AM,16.7,7.7,68,29.92,10.0,Calm,Calm,-,N/A,,Clear,0,2014-02-18 12:15:00
5:35 AM,15.8,7.9,71,29.92,10.0,Calm,Calm,-,N/A,,Clear,0,2014-02-18 12:35:00
5:55 AM,13.6,7.3,76,29.92,10.0,Calm,Calm,-,N/A,,Clear,0,2014-02-18 12:55:00
6:15 AM,15.6,7.2,69,29.95,10.0,Calm,Calm,-,N/A,,Clear,0,2014-02-18 13:15:00
6:35 AM,17.2,8.2,68,29.96,10.0,Calm,Calm,-,N/A,,Clear,0,2014-02-18 13:35:00
6:55 AM,15.8,7.5,70,29.97,10.0,Calm,Calm,-,N/A,,Clear,0,2014-02-18 13:55:00
7:15 AM,24.3,9.3,53,29.98,10.0,Calm,Calm,-,N/A,,Clear,0,2014-02-18 14:15:00
7:35 AM,20.7,8.1,58,30.00,10.0,East,3.5,-,N/A,,Clear,80,2014-02-18 14:35:00
7:55 AM,24.3,7.7,49,30.03,10.0,Calm,Calm,-,N/A,,Clear,0,2014-02-18 14:55:00
8:15 AM,21.6,7.7,55,30.04,10.0,SE,6.9,-,N/A,,Clear,130,2014-02-18 15:15:00
8:35 AM,24.8,9.3,52,30.06,10.0,East,3.5,-,N/A,,Clear,90,2014-02-18 15:35:00
8:55 AM,25.3,9.1,50,30.06,10.0,East,5.8,-,N/A,,Scattered Clouds,80,2014-02-18 15:55:00
9:15 AM,28.6,9.5,45,30.06,10.0,East,9.2,-,N/A,,Scattered Clouds,100,2014-02-18 16:15:00
9:35 AM,29.8,9.1,42,30.07,10.0,ENE,4.6,-,N/A,,Scattered Clouds,70,2014-02-18 16:35:00
9:55 AM,31.1,10.2,42,30.08,10.0,ENE,6.9,-,N/A,,Clear,70,2014-02-18 16:55:00
10:15 AM,32.2,10.4,40,30.09,10.0,East,3.5,-,N/A,,Mostly Cloudy,90,2014-02-18 17:15:00
10:35 AM,31.8,11.8,44,30.09,10.0,ESE,5.8,-,N/A,,Mostly Cloudy,120,2014-02-18 17:35:00
10:55 AM,36.1,9.5,33,30.10,10.0,Calm,Calm,-,N/A,,Scattered Clouds,0,2014-02-18 17:55:00
11:15 AM,37.2,8.6,31,30.10,10.0,South,5.8,-,N/A,,Scattered Clouds,170,2014-02-18 18:15:00
11:35 AM,40.3,9.0,28,30.09,10.0,SSW,5.8,-,N/A,,Clear,210,2014-02-18 18:35:00
11:55 AM,40.1,9.9,29,30.10,10.0,South,8.1,-,N/A,,Clear,190,2014-02-18 18:55:00
12:15 PM,39.7,9.7,29,30.09,10.0,South,4.6,-,N/A,,Clear,170,2014-02-18 19:15:00
12:35 PM,38.3,9.1,30,30.08,10.0,South,3.5,-,N/A,,Clear,170,2014-02-18 19:35:00
12:55 PM,38.3,9.5,31,30.08,10.0,South,4.6,-,N/A,,Clear,170,2014-02-18 19:55:00
1:15 PM,42.3,9.3,26,30.08,10.0,South,4.6,-,N/A,,Clear,170,2014-02-18 20:15:00
1:35 PM,42.8,8.6,25,30.08,10.0,South,4.6,-,N/A,,Clear,190,2014-02-18 20:35:00
1:55 PM,43.0,9.1,25,30.07,10.0,South,5.8,-,N/A,,Clear,190,2014-02-18 20:55:00
2:15 PM,43.7,9.5,25,30.07,10.0,SSW,3.5,-,N/A,,Clear,210,2014-02-18 21:15:00
2:35 PM,43.7,9.7,25,30.06,10.0,SW,4.6,-,N/A,,Clear,230,2014-02-18 21:35:00
2:55 PM,43.3,9.3,25,30.05,10.0,Calm,Calm,-,N/A,,Clear,0,2014-02-18 21:55:00
3:15 PM,43.0,9.5,25,30.05,10.0,Calm,Calm,-,N/A,,Clear,0,2014-02-18 22:15:00
3:35 PM,42.8,9.3,25,30.05,10.0,Calm,Calm,-,N/A,,Clear,0,2014-02-18 22:35:00
3:55 PM,41.4,12.4,31,30.05,10.0,ESE,3.5,-,N/A,,Clear,120,2014-02-18 22:55:00
4:15 PM,40.6,10.0,29,30.05,10.0,Calm,Calm,-,N/A,,Clear,0,2014-02-18 23:15:00
4:35 PM,40.1,9.5,28,30.05,10.0,Calm,Calm,-,N/A,,Clear,0,2014-02-18 23:35:00
4:55 PM,39.0,9.9,30,30.05,10.0,Calm,Calm,-,N/A,,Clear,0,2014-02-18 23:55:00
5:15 PM,39.2,11.3,32,30.05,10.0,Calm,Calm,-,N/A,,Clear,0,2014-02-19 00:15:00
5:35 PM,38.5,10.6,32,30.04,10.0,Calm,Calm,-,N/A,,Clear,0,2014-02-19 00:35:00
5:55 PM,36.9,13.1,38,30.05,10.0,Calm,Calm,-,N/A,,Clear,0,2014-02-19 00:55:00
6:15 PM,34.7,15.1,45,30.06,10.0,Calm,Calm,-,N/A,,Mostly Cloudy,0,2014-02-19 01:15:00
6:35 PM,34.0,15.6,47,30.06,10.0,Calm,Calm,-,N/A,,Overcast,0,2014-02-19 01:35:00
6:55 PM,33.3,16.5,50,30.07,10.0,Calm,Calm,-,N/A,,Overcast,0,2014-02-19 01:55:00
7:15 PM,32.0,17.1,54,30.06,10.0,Calm,Calm,-,N/A,,Mostly Cloudy,0,2014-02-19 02:15:00
7:35 PM,33.3,14.5,46,30.06,10.0,Calm,Calm,-,N/A,,Mostly Cloudy,0,2014-02-19 02:35:00
7:55 PM,30.9,16.0,54,30.05,10.0,ESE,3.5,-,N/A,,Scattered Clouds,110,2014-02-19 02:55:00
8:15 PM,29.3,16.0,58,30.04,10.0,Calm,Calm,-,N/A,,Mostly Cloudy,0,2014-02-19 03:15:00
8:35 PM,29.3,16.5,59,30.04,10.0,Calm,Calm,-,N/A,,Scattered Clouds,0,2014-02-19 03:35:00
8:55 PM,30.7,16.5,56,30.05,10.0,Calm,Calm,-,N/A,,Overcast,0,2014-02-19 03:55:00
9:15 PM,31.5,15.1,51,30.04,10.0,Calm,Calm,-,N/A,,Overcast,0,2014-02-19 04:15:00
9:35 PM,30.6,15.3,53,30.04,10.0,Calm,Calm,-,N/A,,Mostly Cloudy,0,2014-02-19 04:35:00
9:55 PM,29.8,15.8,56,30.04,10.0,Calm,Calm,-,N/A,,Overcast,0,2014-02-19 04:55:00
10:15 PM,27.7,16.2,62,30.04,10.0,Calm,Calm,-,N/A,,Overcast,0,2014-02-19 05:15:00
10:35 PM,28.4,14.7,57,30.04,10.0,NW,3.5,-,N/A,,Overcast,310,2014-02-19 05:35:00
10:55 PM,27.0,15.8,63,30.03,10.0,East,3.5,-,N/A,,Mostly Cloudy,90,2014-02-19 05:55:00
11:15 PM,28.2,15.1,58,30.02,10.0,Calm,Calm,-,N/A,,Scattered Clouds,0,2014-02-19 06:15:00
11:35 PM,25.5,15.8,67,30.02,10.0,Calm,Calm,-,N/A,,Overcast,0,2014-02-19 06:35:00
11:55 PM,26.2,15.6,64,30.01,10.0,Calm,Calm,-,N/A,,Overcast,0,2014-02-19 06:55:00